Location: Nelson
(41.2830°S, 173.2830°E)
Time: 19:59:11
(UTC+12:00)

Cosmos 2322 Rocket - Pass Details

Date: 24 January 2019
Orbit: 832 x 851 km, 71.0° (Epoch: 21 April)

Event Time Altitude Azimuth Distance (km) Brightness Sun altitude
Rises 22:54:42 0° 317° (NW) 3,393 5.3 -18.5°
Reaches altitude 10° 22:57:16 10° 310° (NW) 2,469 4.6 -18.8°
Maximum altitude 23:02:37 42° 239° (WSW) 1,211 3.5 -19.5°
Drops below altitude 10° 23:08:04 10° 169° (S) 2,507 5.2 -20.1°
Sets 23:10:41 0° 161° (SSE) 3,451 5.9 -20.4°
